When you browse on this site, cookies collect data to enhance your experience and personalize the content and advertising you see.
Visit our Privacy Policy to learn more. By continuing to use the site, you agree to this use of cookies and data.
  • în România
  • Lista ţărilor
  • Pe 7 zile
  • Temperatura apei
  • Hartă satelitară
  • Meteo pe hartă
  • Widget-uri
  • user-avatar
    Intrare

    Meteo pe oră la Arosa

    Astăzi, 24 Aprilie, Miercuri

    Timp Temperatura Precipitaţii Vânt Presiune Umiditate
    00:00 -1°C° 0.1 mm 4 m/s 582 mmHg 86%
    01:00 -1°C° 0 mm 4 m/s 582 mmHg 86%
    02:00 0°C° 0.4 mm 4 m/s 582 mmHg 86%
    03:00 0°C° 0.4 mm 4 m/s 583 mmHg 86%
    04:00 +1°C° 0.4 mm 3 m/s 583 mmHg 86%
    05:00 0°C° 0.1 mm 4 m/s 583 mmHg 86%
    06:00 0°C° 0.1 mm 4 m/s 584 mmHg 86%
    07:00 +1°C° 0 mm 5 m/s 584 mmHg 87%
    08:00 +1°C° 0.2 mm 5 m/s 584 mmHg 86%
    09:00 +2°C° 0.2 mm 5 m/s 585 mmHg 84%
    10:00 +3°C° 0.2 mm 5 m/s 585 mmHg 82%
    11:00 +3°C° 0 mm 5 m/s 585 mmHg 79%
    12:00 +5°C° 0 mm 5 m/s 586 mmHg 76%
    13:00 +4°C° 0 mm 6 m/s 586 mmHg 73%
    14:00 +4°C° 0.3 mm 6 m/s 586 mmHg 72%
    15:00 +5°C° 0.3 mm 5 m/s 586 mmHg 72%
    16:00 +5°C° 0.3 mm 5 m/s 586 mmHg 71%
    17:00 +3°C° 1 mm 5 m/s 586 mmHg 76%
    18:00 +2°C° 1 mm 5 m/s 586 mmHg 80%
    19:00 0°C° 1 mm 4 m/s 585 mmHg 84%
    20:00 0°C° 0.2 mm 4 m/s 586 mmHg 84%
    21:00 -1°C° 0.2 mm 4 m/s 586 mmHg 85%
    22:00 -1°C° 0.2 mm 4 m/s 587 mmHg 85%
    23:00 -1°C° 0 mm 4 m/s 587 mmHg 85%

    Mâine, 25 Aprilie, Joi

    Timp Temperatura Precipitaţii Vânt Presiune Umiditate
    00:00 -2°C° 0 mm 4 m/s 587 mmHg 86%
    01:00 -2°C° 0 mm 4 m/s 587 mmHg 86%
    02:00 -2°C° 0 mm 5 m/s 587 mmHg 85%
    03:00 -4°C° 0 mm 5 m/s 587 mmHg 84%
    04:00 -4°C° 0 mm 5 m/s 587 mmHg 83%
    05:00 -2°C° 0 mm 5 m/s 587 mmHg 81%
    06:00 -2°C° 0 mm 5 m/s 587 mmHg 79%
    07:00 -1°C° 0 mm 5 m/s 588 mmHg 77%
    08:00 0°C° 0 mm 5 m/s 588 mmHg 74%
    09:00 +1°C° 0 mm 6 m/s 589 mmHg 70%
    10:00 +2°C° 0 mm 6 m/s 589 mmHg 66%
    11:00 +3°C° 0 mm 6 m/s 589 mmHg 63%
    12:00 +4°C° 0 mm 6 m/s 589 mmHg 60%
    13:00 +5°C° 0 mm 6 m/s 590 mmHg 57%
    14:00 +5°C° 0 mm 6 m/s 589 mmHg 58%
    15:00 +5°C° 0 mm 6 m/s 589 mmHg 59%
    16:00 +4°C° 0 mm 6 m/s 589 mmHg 61%
    17:00 +3°C° 0 mm 6 m/s 588 mmHg 66%
    18:00 +2°C° 0 mm 5 m/s 588 mmHg 72%
    19:00 +1°C° 0 mm 5 m/s 587 mmHg 78%
    20:00 0°C° 0 mm 5 m/s 587 mmHg 79%
    21:00 0°C° 0 mm 5 m/s 587 mmHg 81%
    22:00 -1°C° 0 mm 5 m/s 587 mmHg 83%
    23:00 -1°C° 0 mm 5 m/s 587 mmHg 83%

    Poimâine, 26 Aprilie, Vineri

    Timp Temperatura Precipitaţii Vânt Presiune Umiditate
    00:00 -1°C° 0 mm 5 m/s 587 mmHg 83%
    01:00 -1°C° 0 mm 4 m/s 587 mmHg 83%
    02:00 -1°C° 0.2 mm 4 m/s 587 mmHg 82%
    03:00 -1°C° 0.2 mm 4 m/s 587 mmHg 81%
    04:00 -1°C° 0.2 mm 4 m/s 587 mmHg 80%
    05:00 0°C° 0.6 mm 3 m/s 587 mmHg 82%
    06:00 +1°C° 0.6 mm 3 m/s 587 mmHg 84%
    07:00 +2°C° 0.6 mm 2 m/s 587 mmHg 85%
    08:00 +1°C° 1.7 mm 2 m/s 587 mmHg 88%
    09:00 +1°C° 1.7 mm 2 m/s 587 mmHg 90%
    10:00 0°C° 1.7 mm 3 m/s 587 mmHg 93%
    11:00 -1°C° 1.6 mm 3 m/s 587 mmHg 94%
    12:00 -2°C° 1.6 mm 3 m/s 587 mmHg 95%
    13:00 -4°C° 1.6 mm 3 m/s 587 mmHg 96%
    14:00 -4°C° 1.4 mm 3 m/s 587 mmHg 96%
    15:00 -5°C° 1.4 mm 3 m/s 586 mmHg 96%
    16:00 -5°C° 1.4 mm 3 m/s 586 mmHg 96%
    17:00 -6°C° 0.3 mm 3 m/s 586 mmHg 96%
    18:00 -6°C° 0.3 mm 3 m/s 587 mmHg 96%
    19:00 -6°C° 0.3 mm 3 m/s 587 mmHg 96%
    20:00 -6°C° 0.1 mm 2 m/s 587 mmHg 96%
    21:00 -6°C° 0.1 mm 2 m/s 587 mmHg 96%
    22:00 -7°C° 0.1 mm 2 m/s 587 mmHg 96%
    23:00 -6°C° 0.1 mm 1 m/s 587 mmHg 94%

    27 Aprilie, Sâmbătă

    Timp Temperatura Precipitaţii Vânt Presiune Umiditate
    00:00 -7°C° 0.1 mm 1 m/s 587 mmHg 93%
    01:00 -7°C° 0.1 mm 1 m/s 587 mmHg 92%
    02:00 -8°C° 0 mm 1 m/s 586 mmHg 91%
    03:00 -8°C° 0 mm 1 m/s 586 mmHg 89%
    04:00 -10°C° 0 mm 2 m/s 586 mmHg 88%
    05:00 -9°C° 0 mm 2 m/s 586 mmHg 87%
    06:00 -7°C° 0 mm 2 m/s 587 mmHg 85%
    07:00 -6°C° 0 mm 2 m/s 587 mmHg 83%
    08:00 -2°C° 0 mm 1 m/s 588 mmHg 82%
    09:00 -1°C° 0 mm 1 m/s 588 mmHg 81%
    10:00 +1°C° 0 mm 1 m/s 589 mmHg 80%
    11:00 +2°C° 0 mm 1 m/s 589 mmHg 80%
    12:00 +2°C° 0 mm 1 m/s 589 mmHg 80%
    13:00 +3°C° 0 mm 1 m/s 589 mmHg 80%
    14:00 +3°C° 0.4 mm 1 m/s 588 mmHg 84%
    15:00 +1°C° 0.4 mm 2 m/s 588 mmHg 88%
    16:00 +1°C° 0.4 mm 2 m/s 587 mmHg 91%
    17:00 -1°C° 2.3 mm 2 m/s 587 mmHg 93%
    18:00 -2°C° 2.3 mm 3 m/s 587 mmHg 96%
    19:00 -4°C° 2.3 mm 3 m/s 587 mmHg 98%
    20:00 -4°C° 1.6 mm 3 m/s 587 mmHg 97%
    21:00 -5°C° 1.6 mm 3 m/s 587 mmHg 97%
    22:00 -4°C° 1.6 mm 2 m/s 587 mmHg 97%
    23:00 -5°C° 0.2 mm 2 m/s 587 mmHg 97%

    28 Aprilie, Duminică

    Timp Temperatura Precipitaţii Vânt Presiune Umiditate
    00:00 -4°C° 0.2 mm 1 m/s 586 mmHg 96%
    01:00 -4°C° 0.2 mm 1 m/s 586 mmHg 96%
    02:00 -4°C° 0.1 mm 1 m/s 586 mmHg 96%
    03:00 -6°C° 0.1 mm 1 m/s 585 mmHg 95%
    04:00 -6°C° 0.1 mm 1 m/s 585 mmHg 95%
    05:00 -6°C° 0.1 mm 1 m/s 586 mmHg 95%
    06:00 -4°C° 0.1 mm 1 m/s 586 mmHg 94%
    07:00 -4°C° 0.1 mm 1 m/s 586 mmHg 94%
    08:00 -5°C° 0.1 mm 2 m/s 587 mmHg 93%
    09:00 -4°C° 0.1 mm 2 m/s 587 mmHg 92%
    10:00 -3°C° 0.1 mm 2 m/s 587 mmHg 91%
    11:00 -4°C° 0.1 mm 3 m/s 587 mmHg 91%
    12:00 -4°C° 0.1 mm 3 m/s 587 mmHg 91%
    13:00 -4°C° 0.1 mm 3 m/s 588 mmHg 91%
    14:00 -4°C° 0.3 mm 3 m/s 588 mmHg 91%
    15:00 -4°C° 0.3 mm 3 m/s 588 mmHg 91%
    16:00 -4°C° 0.3 mm 3 m/s 588 mmHg 92%
    17:00 -4°C° 0.3 mm 3 m/s 588 mmHg 93%
    18:00 -5°C° 0.3 mm 3 m/s 588 mmHg 95%
    19:00 -5°C° 0.3 mm 3 m/s 588 mmHg 96%
    20:00 -5°C° 0.1 mm 2 m/s 588 mmHg 97%
    21:00 -5°C° 0.1 mm 2 m/s 589 mmHg 97%
    22:00 -5°C° 0.1 mm 2 m/s 589 mmHg 98%
    23:00 -6°C° 0.1 mm 2 m/s 589 mmHg 97%

    29 Aprilie, Luni

    Timp Temperatura Precipitaţii Vânt Presiune Umiditate
    00:00 -6°C° 0.1 mm 2 m/s 589 mmHg 97%
    01:00 -6°C° 0.1 mm 2 m/s 589 mmHg 97%
    02:00 -4°C° 0 mm 1 m/s 589 mmHg 97%
    03:00 -4°C° 0 mm 1 m/s 589 mmHg 97%
    04:00 -4°C° 0 mm 1 m/s 589 mmHg 97%
    05:00 -4°C° 0 mm 1 m/s 589 mmHg 95%
    06:00 -3°C° 0 mm 1 m/s 589 mmHg 94%
    07:00 -3°C° 0 mm 1 m/s 589 mmHg 93%
    08:00 -2°C° 0 mm 1 m/s 589 mmHg 91%
    09:00 -3°C° 0 mm 2 m/s 589 mmHg 90%
    10:00 -2°C° 0 mm 2 m/s 589 mmHg 88%
    11:00 -1°C° 0 mm 2 m/s 589 mmHg 87%
    12:00 -1°C° 0 mm 2 m/s 589 mmHg 87%
    13:00 +1°C° 0 mm 2 m/s 589 mmHg 86%
    14:00 +1°C° 0 mm 2 m/s 589 mmHg 86%
    15:00 +1°C° 0 mm 2 m/s 589 mmHg 86%
    16:00 +1°C° 0 mm 2 m/s 588 mmHg 86%
    17:00 -1°C° 0 mm 2 m/s 588 mmHg 88%
    18:00 -2°C° 0 mm 2 m/s 588 mmHg 90%
    19:00 -1°C° 0 mm 1 m/s 587 mmHg 92%
    20:00 -2°C° 0 mm 1 m/s 587 mmHg 93%
    21:00 -3°C° 0 mm 1 m/s 587 mmHg 93%
    22:00 -6°C° 0 mm 1 m/s 586 mmHg 94%
    23:00 -6°C° 0 mm 1 m/s 586 mmHg 92%
    Arată mai mult